Orbital Elements at Epoch 2459200.5 (2020-Dec-17.0) TDB
Reference: JPL 15 (heliocentric ecliptic J2000)
Element | Value | Uncertainty (1-sigma) | Units |
e | .2301206960650541 | 6.4435e-08 | |
a | 3.019469102597054 | 1.8293e-08 | au |
q | 2.324626770960496 | 1.8936e-07 | au |
i | 1.514453706458359 | 4.3574e-06 | deg |
node | 128.3988481464145 | 0.00026174 | deg |
peri | 233.7010602077171 | 0.00026204 | deg |
M | 33.95304209787076 | 1.1725e-05 | deg |
tp | 2459019.753247520900 (2020-Jun-19.25324752) | 6.2216e-05 | TDB |
period | 1916.435961906236 5.25 | 1.7416e-05 4.768e-08 | d yr |
n | .1878486978724382 | 1.7071e-09 | deg/d |
Q | 3.714311434233613 | 2.2503e-08 | au |
|
| | Orbit Determination Parameters
Additional Information
|